Time,TemperatureF,DewpointF,PressureIn,WindDirection,WindDirectionDegrees,WindSpeedMPH,WindSpeedGustMPH,Humidity,HourlyPrecipIn,Conditions,Clouds,dailyrainin,SoftwareType,DateUTC
2013-03-05 00:03:00,48.0,34.4,30.05,East,88,0.0,0.0,59,0.00,,,0.00,VWS V13.01,2013-03-04 23:03:00,
2013-03-05 00:08:00,47.8,34.2,30.05,East,99,0.0,0.0,59,0.00,,,0.00,VWS V13.01,2013-03-04 23:08:00,
2013-03-05 00:13:00,47.8,34.2,30.08,East,100,0.0,0.0,59,0.00,,,0.00,VWS V13.01,2013-03-04 23:13:00,
2013-03-05 00:18:00,47.8,34.2,30.08,East,96,0.0,0.0,59,0.00,,,0.00,VWS V13.01,2013-03-04 23:18:00,
2013-03-05 00:23:00,47.8,33.8,30.08,East,88,0.0,0.0,58,0.00,,,0.00,VWS V13.01,2013-03-04 23:23:00,
2013-03-05 00:29:00,47.8,33.8,30.08,East,87,0.0,0.0,58,0.00,,,0.00,VWS V13.01,2013-03-04 23:29:00,
2013-03-05 00:34:00,47.7,33.6,30.08,East,87,0.0,0.0,58,0.00,,,0.00,VWS V13.01,2013-03-04 23:34:00,
2013-03-05 00:39:00,47.7,34.0,30.08,East,87,0.0,0.0,59,0.00,,,0.00,VWS V13.01,2013-03-04 23:39:00,
2013-03-05 00:44:00,47.5,33.9,30.08,East,87,0.0,0.0,59,0.00,,,0.00,VWS V13.01,2013-03-04 23:44:00,
2013-03-05 00:49:00,47.3,33.7,30.08,ENE,70,0.0,0.0,59,0.00,,,0.00,VWS V13.01,2013-03-04 23:49:00,
2013-03-05 00:54:00,46.9,33.8,30.08,ENE,70,0.0,0.0,60,0.00,,,0.00,VWS V13.01,2013-03-04 23:54:00,
2013-03-05 00:58:00,46.6,33.9,30.08,ENE,73,0.0,0.0,61,0.00,,,0.00,VWS V13.01,2013-03-04 23:58:00,
2013-03-05 01:03:00,46.8,34.0,30.08,ESE,111,0.0,2.7,61,0.00,,,0.00,VWS V13.01,2013-03-05 00:03:00,
2013-03-05 01:09:00,46.8,33.6,30.08,ENE,75,0.0,0.0,60,0.00,,,0.00,VWS V13.01,2013-03-05 00:09:00,
2013-03-05 01:14:00,46.9,33.8,30.08,ENE,68,0.0,0.0,60,0.00,,,0.00,VWS V13.01,2013-03-05 00:14:00,
2013-03-05 01:19:00,46.9,33.8,30.08,ENE,71,0.0,0.0,60,0.00,,,0.00,VWS V13.01,2013-03-05 00:19:00,
2013-03-05 01:24:00,47.3,33.7,30.08,East,86,0.0,2.2,59,0.00,,,0.00,VWS V13.01,2013-03-05 00:24:00,
2013-03-05 01:29:00,47.3,33.7,30.08,ENE,65,0.0,2.2,59,0.00,,,0.00,VWS V13.01,2013-03-05 00:29:00,
2013-03-05 01:34:00,47.5,33.9,30.08,ENE,57,0.0,0.0,59,0.00,,,0.00,VWS V13.01,2013-03-05 00:34:00,
2013-03-05 01:39:00,47.3,33.7,30.08,East,93,0.0,0.0,59,0.00,,,0.00,VWS V13.01,2013-03-05 00:39:00,
2013-03-05 01:44:00,47.3,33.7,30.08,ENE,70,0.0,0.0,59,0.00,,,0.00,VWS V13.01,2013-03-05 00:44:00,
2013-03-05 01:49:00,47.3,33.7,30.08,ENE,77,0.0,0.0,59,0.00,,,0.00,VWS V13.01,2013-03-05 00:49:00,
2013-03-05 01:54:00,47.1,34.0,30.08,ENE,77,0.0,0.0,60,0.00,,,0.00,VWS V13.01,2013-03-05 00:54:00,
2013-03-05 01:59:00,46.9,33.8,30.08,ENE,77,0.0,0.0,60,0.00,,,0.00,VWS V13.01,2013-03-05 00:59:00,
2013-03-05 02:04:00,46.8,34.0,30.08,ENE,77,0.0,0.0,61,0.00,,,0.00,VWS V13.01,2013-03-05 01:04:00,
2013-03-05 02:09:00,46.6,33.9,30.08,ENE,77,0.0,0.0,61,0.00,,,0.00,VWS V13.01,2013-03-05 01:09:00,
2013-03-05 02:14:00,46.2,33.9,30.08,ENE,77,0.0,0.0,62,0.00,,,0.00,VWS V13.01,2013-03-05 01:14:00,
2013-03-05 02:19:00,46.0,34.2,30.08,ENE,77,0.0,0.0,63,0.00,,,0.00,VWS V13.01,2013-03-05 01:19:00,
2013-03-05 02:24:00,46.0,34.6,30.08,ENE,77,0.0,0.0,64,0.00,,,0.00,VWS V13.01,2013-03-05 01:24:00,
2013-03-05 02:29:00,45.9,34.4,30.08,ENE,77,0.0,0.0,64,0.00,,,0.00,VWS V13.01,2013-03-05 01:29:00,
2013-03-05 02:34:00,45.7,34.2,30.08,ENE,77,0.0,0.0,64,0.00,,,0.00,VWS V13.01,2013-03-05 01:34:00,
2013-03-05 02:39:00,45.3,34.3,30.08,ENE,77,0.0,0.0,65,0.00,,,0.00,VWS V13.01,2013-03-05 01:39:00,
2013-03-05 02:44:00,45.1,34.1,30.08,ENE,77,0.0,0.0,65,0.00,,,0.00,VWS V13.01,2013-03-05 01:44:00,
2013-03-05 02:49:00,45.3,34.6,30.08,East,93,0.0,0.0,66,0.00,,,0.00,VWS V13.01,2013-03-05 01:49:00,
2013-03-05 02:54:00,45.3,34.6,30.08,East,88,0.0,0.0,66,0.00,,,0.00,VWS V13.01,2013-03-05 01:54:00,
2013-03-05 02:59:00,45.3,34.6,30.08,ENE,78,0.0,0.0,66,0.00,,,0.00,VWS V13.01,2013-03-05 01:59:00,
2013-03-05 03:04:00,45.3,34.6,30.08,NNE,28,0.0,0.0,66,0.00,,,0.00,VWS V13.01,2013-03-05 02:04:00,
2013-03-05 03:09:00,45.3,34.6,30.08,NE,49,0.0,0.0,66,0.00,,,0.00,VWS V13.01,2013-03-05 02:09:00,
2013-03-05 03:14:00,45.3,35.0,30.08,North,357,2.7,2.7,67,0.00,,,0.00,VWS V13.01,2013-03-05 02:14:00,
2013-03-05 03:19:00,45.3,34.6,30.08,ENE,73,2.7,2.7,66,0.00,,,0.00,VWS V13.01,2013-03-05 02:19:00,
2013-03-05 03:24:00,45.0,34.3,30.08,East,101,0.0,0.0,66,0.00,,,0.00,VWS V13.01,2013-03-05 02:24:00,
2013-03-05 03:29:00,44.6,34.3,30.08,ESE,108,0.0,0.0,67,0.00,,,0.00,VWS V13.01,2013-03-05 02:29:00,
2013-03-05 03:34:00,44.6,34.3,30.08,ENE,78,0.0,0.0,67,0.00,,,0.00,VWS V13.01,2013-03-05 02:34:00,
2013-03-05 03:39:00,44.8,34.9,30.08,NNE,12,0.0,0.0,68,0.00,,,0.00,VWS V13.01,2013-03-05 02:39:00,
2013-03-05 03:44:00,44.6,34.3,30.08,North,0,2.2,2.2,67,0.00,,,0.00,VWS V13.01,2013-03-05 02:44:00,
2013-03-05 03:49:00,44.4,34.5,30.08,ENE,59,2.7,3.6,68,0.00,,,0.00,VWS V13.01,2013-03-05 02:49:00,
2013-03-05 03:54:00,44.2,34.4,30.08,NNE,33,0.0,3.1,68,0.00,,,0.00,VWS V13.01,2013-03-05 02:54:00,
2013-03-05 03:59:00,43.9,34.4,30.08,ESE,103,0.0,2.7,69,0.00,,,0.00,VWS V13.01,2013-03-05 02:59:00,
2013-03-05 04:04:00,43.7,34.6,30.08,NE,41,0.0,0.0,70,0.00,,,0.00,VWS V13.01,2013-03-05 03:04:00,
2013-03-05 04:09:00,43.5,34.8,30.08,ENE,66,3.1,3.1,71,0.00,,,0.00,VWS V13.01,2013-03-05 03:09:00,
2013-03-05 04:14:00,43.5,34.8,30.08,ENE,59,0.0,0.0,71,0.00,,,0.00,VWS V13.01,2013-03-05 03:14:00,
2013-03-05 04:19:00,43.5,34.8,30.08,East,79,2.2,2.2,71,0.00,,,0.00,VWS V13.01,2013-03-05 03:19:00,
2013-03-05 04:24:00,43.5,34.8,30.08,NNE,26,0.0,0.0,71,0.00,,,0.00,VWS V13.01,2013-03-05 03:24:00,
2013-03-05 04:29:00,43.5,35.1,30.08,North,353,0.0,0.0,72,0.00,,,0.00,VWS V13.01,2013-03-05 03:29:00,
2013-03-05 04:34:00,43.7,35.3,30.08,North,1,0.0,0.0,72,0.00,,,0.00,VWS V13.01,2013-03-05 03:34:00,
2013-03-05 04:39:00,43.9,35.1,30.08,NNE,26,3.6,3.6,71,0.00,,,0.00,VWS V13.01,2013-03-05 03:39:00,
2013-03-05 04:44:00,43.9,35.1,30.05,East,93,0.0,2.7,71,0.00,,,0.00,VWS V13.01,2013-03-05 03:44:00,
2013-03-05 04:49:00,43.9,35.1,30.05,ESE,104,0.0,0.0,71,0.00,,,0.00,VWS V13.01,2013-03-05 03:49:00,
2013-03-05 04:54:00,43.9,35.1,30.05,NE,41,0.0,0.0,71,0.00,,,0.00,VWS V13.01,2013-03-05 03:54:00,
2013-03-05 04:59:00,44.1,35.3,30.05,ENE,74,0.0,0.0,71,0.00,,,0.00,VWS V13.01,2013-03-05 03:59:00,
2013-03-05 05:04:00,44.1,35.3,30.05,NNE,17,3.6,3.6,71,0.00,,,0.00,VWS V13.01,2013-03-05 04:04:00,
2013-03-05 05:09:00,44.1,35.3,30.05,NE,43,0.0,0.0,71,0.00,,,0.00,VWS V13.01,2013-03-05 04:09:00,
2013-03-05 05:14:00,44.1,35.3,30.05,ENE,65,0.0,0.0,71,0.00,,,0.00,VWS V13.01,2013-03-05 04:14:00,
2013-03-05 05:19:00,43.9,35.1,30.05,NNE,32,0.0,0.0,71,0.00,,,0.00,VWS V13.01,2013-03-05 04:19:00,
2013-03-05 05:24:00,43.7,34.9,30.05,East,84,0.0,0.0,71,0.00,,,0.00,VWS V13.01,2013-03-05 04:24:00,
2013-03-05 05:29:00,43.5,34.8,30.05,NNE,25,0.0,2.7,71,0.00,,,0.00,VWS V13.01,2013-03-05 04:29:00,
2013-03-05 05:34:00,43.5,34.8,30.05,NNE,27,3.1,4.0,71,0.00,,,0.00,VWS V13.01,2013-03-05 04:34:00,
2013-03-05 05:39:00,43.5,34.8,30.05,NE,34,0.0,0.0,71,0.00,,,0.00,VWS V13.01,2013-03-05 04:39:00,
2013-03-05 05:44:00,43.3,34.6,30.05,NNW,338,0.0,0.0,71,0.00,,,0.00,VWS V13.01,2013-03-05 04:44:00,
2013-03-05 05:49:00,43.3,34.6,30.05,North,357,0.0,0.0,71,0.00,,,0.00,VWS V13.01,2013-03-05 04:49:00,
2013-03-05 05:54:00,43.3,34.6,30.05,NE,56,0.0,0.0,71,0.00,,,0.00,VWS V13.01,2013-03-05 04:54:00,
2013-03-05 05:59:00,43.3,34.6,30.05,East,91,2.7,2.7,71,0.00,,,0.00,VWS V13.01,2013-03-05 04:59:00,
2013-03-05 06:00:00,43.3,34.6,30.05,ESE,108,2.7,2.7,71,0.00,,,0.00,VWS V13.01,2013-03-05 05:00:00,
2013-03-05 06:01:00,43.3,34.6,30.05,East,90,0.0,3.6,71,0.00,,,0.00,VWS V13.01,2013-03-05 05:01:00,
2013-03-05 06:06:00,43.2,34.0,30.05,East,85,0.0,0.0,70,0.00,,,0.00,VWS V13.01,2013-03-05 05:06:00,
2013-03-05 06:11:00,43.3,34.6,30.05,NNW,341,0.0,0.0,71,0.00,,,0.00,VWS V13.01,2013-03-05 05:11:00,
2013-03-05 06:16:00,43.3,34.6,30.02,North,2,2.7,2.7,71,0.00,,,0.00,VWS V13.01,2013-03-05 05:16:00,
2013-03-05 06:21:00,43.3,34.2,30.02,East,82,0.0,3.1,70,0.00,,,0.00,VWS V13.01,2013-03-05 05:21:00,
2013-03-05 06:26:00,43.3,34.2,30.02,NNE,22,0.0,0.0,70,0.00,,,0.00,VWS V13.01,2013-03-05 05:26:00,
2013-03-05 06:31:00,43.3,34.2,30.02,East,81,0.0,0.0,70,0.00,,,0.00,VWS V13.01,2013-03-05 05:31:00,
2013-03-05 06:36:00,43.5,34.4,30.02,North,0,2.2,2.2,70,0.00,,,0.00,VWS V13.01,2013-03-05 05:36:00,
2013-03-05 06:41:00,43.5,34.4,30.02,NNW,340,2.2,2.2,70,0.00,,,0.00,VWS V13.01,2013-03-05 05:41:00,
2013-03-05 06:46:00,43.7,34.2,30.02,East,88,0.0,0.0,69,0.00,,,0.00,VWS V13.01,2013-03-05 05:46:00,
2013-03-05 06:51:00,43.7,34.2,30.02,NNE,18,0.0,0.0,69,0.00,,,0.00,VWS V13.01,2013-03-05 05:51:00,
2013-03-05 06:56:00,43.7,34.2,30.02,NNE,29,0.0,0.0,69,0.00,,,0.00,VWS V13.01,2013-03-05 05:56:00,
2013-03-05 07:01:00,43.7,33.8,30.02,ENE,59,0.0,0.0,68,0.00,,SCT070,0.00,VWS V13.01,2013-03-05 06:01:00,
2013-03-05 07:06:00,43.9,34.0,30.02,North,8,0.0,0.0,68,0.00,,SCT070,0.00,VWS V13.01,2013-03-05 06:06:00,
2013-03-05 07:11:00,43.9,34.0,30.02,NE,40,0.0,0.0,68,0.00,,SCT070,0.00,VWS V13.01,2013-03-05 06:11:00,
2013-03-05 07:16:00,43.9,33.7,30.02,North,1,2.7,2.7,67,0.00,,SCT070,0.00,VWS V13.01,2013-03-05 06:16:00,
2013-03-05 07:21:00,43.7,33.5,30.02,NE,52,0.0,0.0,67,0.00,,SCT070,0.00,VWS V13.01,2013-03-05 06:21:00,
2013-03-05 07:26:00,43.9,33.7,30.02,East,81,0.0,0.0,67,0.00,,SCT070,0.00,VWS V13.01,2013-03-05 06:26:00,
2013-03-05 07:31:00,44.1,33.8,30.02,East,81,0.0,0.0,67,0.00,,SCT070,0.00,VWS V13.01,2013-03-05 06:31:00,
2013-03-05 07:36:00,44.2,34.0,30.02,East,81,0.0,0.0,67,0.00,,SCT070,0.00,VWS V13.01,2013-03-05 06:36:00,
2013-03-05 07:41:00,44.4,33.8,30.02,East,81,0.0,0.0,66,0.00,,SCT070,0.00,VWS V13.01,2013-03-05 06:41:00,
2013-03-05 07:46:00,44.6,33.6,30.02,East,81,0.0,0.0,65,0.00,,SCT070,0.00,VWS V13.01,2013-03-05 06:46:00,
2013-03-05 07:51:00,45.0,33.5,30.02,ENE,58,0.0,0.0,64,0.00,,SCT070,0.00,VWS V13.01,2013-03-05 06:51:00,
2013-03-05 07:56:00,45.3,33.9,30.02,NE,51,0.0,0.0,64,0.00,,SCT070,0.00,VWS V13.01,2013-03-05 06:56:00,
2013-03-05 08:01:00,45.7,33.8,30.05,NNE,12,0.0,0.0,63,0.00,,SCT070,0.00,VWS V13.01,2013-03-05 07:01:00,
2013-03-05 08:06:00,46.0,33.4,30.05,East,87,0.0,0.0,61,0.00,,SCT070,0.00,VWS V13.01,2013-03-05 07:06:00,
2013-03-05 08:11:00,46.6,33.0,30.05,East,88,0.0,0.0,59,0.00,,SCT070,0.00,VWS V13.01,2013-03-05 07:11:00,
2013-03-05 08:16:00,46.8,33.2,30.05,North,11,0.0,0.0,59,0.00,,SCT070,0.00,VWS V13.01,2013-03-05 07:16:00,
2013-03-05 08:21:00,46.8,32.3,30.05,ENE,59,0.0,0.0,57,0.00,,SCT070,0.00,VWS V13.01,2013-03-05 07:21:00,
2013-03-05 08:26:00,46.8,31.9,30.05,ENE,78,0.0,0.0,56,0.00,,SCT070,0.00,VWS V13.01,2013-03-05 07:26:00,
2013-03-05 08:31:00,47.1,32.2,30.05,ENE,78,0.0,0.0,56,0.00,,SCT070,0.00,VWS V13.01,2013-03-05 07:31:00,
2013-03-05 08:36:00,47.5,32.1,30.05,ENE,70,0.0,0.0,55,0.00,,SCT070,0.00,VWS V13.01,2013-03-05 07:36:00,
2013-03-05 08:41:00,47.8,32.5,30.05,ENE,70,0.0,0.0,55,0.00,,SCT070,0.00,VWS V13.01,2013-03-05 07:41:00,
2013-03-05 08:46:00,48.4,32.5,30.05,East,94,0.0,0.0,54,0.00,,SCT070,0.00,VWS V13.01,2013-03-05 07:46:00,
2013-03-05 08:51:00,48.7,32.4,30.05,East,94,0.0,0.0,53,0.00,,SCT070,0.00,VWS V13.01,2013-03-05 07:51:00,
2013-03-05 08:56:00,49.5,31.6,30.05,East,94,0.0,0.0,50,0.00,,SCT070,0.00,VWS V13.01,2013-03-05 07:56:00,
2013-03-05 09:01:00,50.2,31.8,30.05,East,83,0.0,0.0,49,0.00,,SCT070,0.00,VWS V13.01,2013-03-05 08:01:00,
2013-03-05 09:06:00,50.7,31.8,30.05,East,83,0.0,0.0,48,0.00,,SCT070,0.00,VWS V13.01,2013-03-05 08:06:00,
2013-03-05 09:11:00,50.7,31.2,30.05,ENE,77,0.0,0.0,47,0.00,,SCT070,0.00,VWS V13.01,2013-03-05 08:11:00,
2013-03-05 09:16:00,50.5,30.5,30.05,North,2,0.0,0.0,46,0.00,,SCT070,0.00,VWS V13.01,2013-03-05 08:16:00,
2013-03-05 09:21:00,50.9,30.9,30.05,North,2,0.0,0.0,46,0.00,,SCT070,0.00,VWS V13.01,2013-03-05 08:21:00,
2013-03-05 09:26:00,51.3,31.2,30.05,North,2,0.0,0.0,46,0.00,,SCT070,0.00,VWS V13.01,2013-03-05 08:26:00,
2013-03-05 09:31:00,51.6,31.5,30.05,North,2,0.0,0.0,46,0.00,,SCT070,0.00,VWS V13.01,2013-03-05 08:31:00,
2013-03-05 09:36:00,51.6,31.0,30.05,North,2,0.0,0.0,45,0.00,,SCT070,0.00,VWS V13.01,2013-03-05 08:36:00,
2013-03-05 09:41:00,51.8,30.6,30.05,North,2,0.0,0.0,44,0.00,,SCT070,0.00,VWS V13.01,2013-03-05 08:41:00,
2013-03-05 09:46:00,52.0,30.8,30.05,NE,41,0.0,0.0,44,0.00,,SCT070,0.00,VWS V13.01,2013-03-05 08:46:00,
2013-03-05 09:51:00,52.2,30.9,30.05,NE,38,0.0,0.0,44,0.00,,SCT070,0.00,VWS V13.01,2013-03-05 08:51:00,
2013-03-05 09:56:00,52.2,30.9,30.05,North,10,0.0,0.0,44,0.00,,SCT070,0.00,VWS V13.01,2013-03-05 08:56:00,
2013-03-05 10:01:00,52.5,30.7,30.05,NNE,17,0.0,0.0,43,0.00,,SCT070,0.00,VWS V13.01,2013-03-05 09:01:00,
2013-03-05 10:06:00,52.7,30.9,30.05,NE,34,0.0,0.0,43,0.00,,SCT070,0.00,VWS V13.01,2013-03-05 09:06:00,
2013-03-05 10:11:00,53.1,31.2,30.05,NE,38,0.0,0.0,43,0.00,,SCT070,0.00,VWS V13.01,2013-03-05 09:11:00,
2013-03-05 10:16:00,53.4,30.9,30.05,NE,38,0.0,0.0,42,0.00,,SCT070,0.00,VWS V13.01,2013-03-05 09:16:00,
2013-03-05 10:21:00,53.8,30.6,30.05,NE,34,0.0,0.0,41,0.00,,SCT070,0.00,VWS V13.01,2013-03-05 09:21:00,
2013-03-05 10:26:00,54.3,30.5,30.05,NE,34,0.0,0.0,40,0.00,,SCT070,0.00,VWS V13.01,2013-03-05 09:26:00,
2013-03-05 10:31:00,54.1,29.8,30.05,NNE,18,0.0,0.0,39,0.00,,SCT070,0.00,VWS V13.01,2013-03-05 09:31:00,
2013-03-05 10:36:00,54.1,29.8,30.05,NNE,18,0.0,0.0,39,0.00,,SCT070,0.00,VWS V13.01,2013-03-05 09:36:00,
2013-03-05 10:41:00,54.7,30.2,30.05,NNE,18,0.0,0.0,39,0.00,,SCT070,0.00,VWS V13.01,2013-03-05 09:41:00,
2013-03-05 10:46:00,54.7,29.6,30.05,North,6,0.0,0.0,38,0.00,,SCT070,0.00,VWS V13.01,2013-03-05 09:46:00,
2013-03-05 10:51:00,54.5,29.4,30.05,North,5,0.0,0.0,38,0.00,,SCT070,0.00,VWS V13.01,2013-03-05 09:51:00,
2013-03-05 10:56:00,54.9,29.8,30.05,North,5,0.0,0.0,38,0.00,,SCT070,0.00,VWS V13.01,2013-03-05 09:56:00,
2013-03-05 11:01:00,54.9,29.8,30.05,NNE,15,0.0,0.0,38,0.00,,SCT080,0.00,VWS V13.01,2013-03-05 10:01:00,
2013-03-05 11:06:00,55.2,30.1,30.05,NNE,17,0.0,0.0,38,0.00,,SCT080,0.00,VWS V13.01,2013-03-05 10:06:00,
2013-03-05 11:11:00,55.6,29.7,30.05,NE,46,0.0,0.0,37,0.00,,SCT080,0.00,VWS V13.01,2013-03-05 10:11:00,
2013-03-05 11:16:00,55.9,30.1,30.05,North,353,0.0,0.0,37,0.00,,SCT080,0.00,VWS V13.01,2013-03-05 10:16:00,
2013-03-05 11:21:00,55.9,30.1,30.05,North,353,0.0,0.0,37,0.00,,SCT080,0.00,VWS V13.01,2013-03-05 10:21:00,
2013-03-05 11:26:00,56.3,29.7,30.05,North,353,0.0,0.0,36,0.00,,SCT080,0.00,VWS V13.01,2013-03-05 10:26:00,
2013-03-05 11:31:00,56.8,30.2,30.05,NW,308,0.0,0.0,36,0.00,,SCT080,0.00,VWS V13.01,2013-03-05 10:31:00,
2013-03-05 11:36:00,57.0,30.4,30.05,NNW,340,0.0,0.0,36,0.00,,SCT080,0.00,VWS V13.01,2013-03-05 10:36:00,
2013-03-05 11:41:00,57.4,30.0,30.05,NNW,340,0.0,0.0,35,0.00,,SCT080,0.00,VWS V13.01,2013-03-05 10:41:00,
2013-03-05 11:46:00,57.6,30.1,30.05,North,353,0.0,0.0,35,0.00,,SCT080,0.00,VWS V13.01,2013-03-05 10:46:00,
2013-03-05 11:51:00,57.2,29.8,30.05,North,357,0.0,0.0,35,0.00,,SCT080,0.00,VWS V13.01,2013-03-05 10:51:00,
2013-03-05 11:56:00,57.0,30.4,30.05,North,8,0.0,0.0,36,0.00,,SCT080,0.00,VWS V13.01,2013-03-05 10:56:00,
2013-03-05 12:01:00,57.2,29.8,30.02,NE,46,0.0,0.0,35,0.00,,SCT060,0.00,VWS V13.01,2013-03-05 11:01:00,
2013-03-05 12:06:00,57.2,29.8,30.02,ENE,68,0.0,0.0,35,0.00,,SCT060,0.00,VWS V13.01,2013-03-05 11:06:00,
2013-03-05 12:11:00,57.2,29.8,30.02,NW,315,0.0,0.0,35,0.00,,SCT060,0.00,VWS V13.01,2013-03-05 11:11:00,
2013-03-05 12:16:00,57.2,29.8,30.02,NW,315,0.0,0.0,35,0.00,,SCT060,0.00,VWS V13.01,2013-03-05 11:16:00,
2013-03-05 12:21:00,57.2,29.8,30.02,NNW,348,0.0,0.0,35,0.00,,SCT060,0.00,VWS V13.01,2013-03-05 11:21:00,
2013-03-05 12:26:00,57.2,29.8,30.02,NW,325,0.0,0.0,35,0.00,,SCT060,0.00,VWS V13.01,2013-03-05 11:26:00,
2013-03-05 12:31:00,57.2,29.8,30.02,NNW,327,0.0,0.0,35,0.00,,SCT060,0.00,VWS V13.01,2013-03-05 11:31:00,
2013-03-05 12:36:00,57.6,30.1,30.02,NNW,327,0.0,0.0,35,0.00,,SCT060,0.00,VWS V13.01,2013-03-05 11:36:00,
2013-03-05 12:41:00,57.6,30.1,30.02,NW,310,0.0,0.0,35,0.00,,SCT060,0.00,VWS V13.01,2013-03-05 11:41:00,
2013-03-05 12:46:00,57.9,30.5,30.02,NW,307,0.0,0.0,35,0.00,,SCT060,0.00,VWS V13.01,2013-03-05 11:46:00,
2013-03-05 12:51:00,58.3,30.8,30.02,NW,307,0.0,0.0,35,0.00,,SCT060,0.00,VWS V13.01,2013-03-05 11:51:00,
2013-03-05 12:56:00,58.6,31.1,30.02,West,271,0.0,0.0,35,0.00,,SCT060,0.00,VWS V13.01,2013-03-05 11:56:00,
2013-03-05 13:01:00,59.0,30.7,30.02,WSW,254,0.0,0.0,34,0.00,,SCT060,0.00,VWS V13.01,2013-03-05 12:01:00,
2013-03-05 13:06:00,59.2,30.9,30.02,West,269,0.0,0.0,34,0.00,,SCT060,0.00,VWS V13.01,2013-03-05 12:06:00,
2013-03-05 13:11:00,59.7,31.3,30.02,SSW,212,0.0,0.0,34,0.00,,SCT060,0.00,VWS V13.01,2013-03-05 12:11:00,
2013-03-05 13:16:00,59.4,28.7,30.02,South,179,0.0,0.0,31,0.00,,SCT060,0.00,VWS V13.01,2013-03-05 12:16:00,
2013-03-05 13:21:00,59.5,28.9,30.02,SSE,154,5.4,5.4,31,0.00,,SCT060,0.00,VWS V13.01,2013-03-05 12:21:00,
2013-03-05 13:26:00,59.4,27.1,30.02,SE,146,2.2,8.1,29,0.00,,SCT060,0.00,VWS V13.01,2013-03-05 12:26:00,
2013-03-05 13:31:00,59.4,27.1,30.02,SSW,212,3.6,3.6,29,0.00,,SCT060,0.00,VWS V13.01,2013-03-05 12:31:00,
2013-03-05 13:36:00,59.4,26.3,30.02,South,182,5.4,5.4,28,0.00,,SCT060,0.00,VWS V13.01,2013-03-05 12:36:00,
2013-03-05 13:41:00,59.4,27.1,30.02,SSW,197,2.7,2.7,29,0.00,,SCT060,0.00,VWS V13.01,2013-03-05 12:41:00,
2013-03-05 13:46:00,59.4,27.1,30.02,SSE,160,0.0,0.0,29,0.00,,SCT060,0.00,VWS V13.01,2013-03-05 12:46:00,
2013-03-05 13:51:00,59.4,27.1,30.02,SW,221,2.7,2.7,29,0.00,,SCT060,0.00,VWS V13.01,2013-03-05 12:51:00,
2013-03-05 13:56:00,59.4,27.1,30.02,WNW,283,2.2,2.2,29,0.00,,SCT060,0.00,VWS V13.01,2013-03-05 12:56:00,
2013-03-05 14:01:00,59.2,27.0,29.99,South,190,5.4,7.6,29,0.00,,SCT060,0.00,VWS V13.01,2013-03-05 13:01:00,
2013-03-05 14:06:00,59.0,26.0,29.99,SSE,155,2.2,4.9,28,0.00,,SCT060,0.00,VWS V13.01,2013-03-05 13:06:00,
2013-03-05 14:11:00,59.0,26.0,29.99,SSE,161,0.0,0.0,28,0.00,,SCT060,0.00,VWS V13.01,2013-03-05 13:11:00,
2013-03-05 14:16:00,58.8,26.6,29.99,South,171,0.0,2.7,29,0.00,,SCT060,0.00,VWS V13.01,2013-03-05 13:16:00,
2013-03-05 14:21:00,58.8,26.6,29.99,SW,223,0.0,0.0,29,0.00,,SCT060,0.00,VWS V13.01,2013-03-05 13:21:00,
2013-03-05 14:26:00,59.0,26.8,29.99,ESE,109,3.1,3.1,29,0.00,,SCT060,0.00,VWS V13.01,2013-03-05 13:26:00,
2013-03-05 14:31:00,58.8,26.6,29.99,WSW,251,0.0,0.0,29,0.00,,SCT060,0.00,VWS V13.01,2013-03-05 13:31:00,
2013-03-05 14:36:00,58.6,26.5,29.99,ESE,112,0.0,0.0,29,0.00,,SCT060,0.00,VWS V13.01,2013-03-05 13:36:00,
2013-03-05 14:41:00,58.6,25.6,29.99,SW,232,0.0,0.0,28,0.00,,SCT060,0.00,VWS V13.01,2013-03-05 13:41:00,
2013-03-05 14:46:00,58.5,25.5,29.96,SSE,154,3.6,3.6,28,0.00,,SCT060,0.00,VWS V13.01,2013-03-05 13:46:00,
2013-03-05 14:51:00,58.6,25.6,29.96,SW,221,0.0,0.0,28,0.00,,SCT060,0.00,VWS V13.01,2013-03-05 13:51:00,
2013-03-05 14:56:00,58.6,25.6,29.96,SE,131,5.8,5.8,28,0.00,,SCT060,0.00,VWS V13.01,2013-03-05 13:56:00,
2013-03-05 15:01:00,58.6,25.6,29.96,SSE,153,0.0,2.7,28,0.00,,SCT060,0.00,VWS V13.01,2013-03-05 14:01:00,
2013-03-05 15:06:00,58.6,25.6,29.96,ESE,104,0.0,0.0,28,0.00,,SCT060,0.00,VWS V13.01,2013-03-05 14:06:00,
2013-03-05 15:11:00,58.6,25.6,29.96,ESE,102,2.7,2.7,28,0.00,,SCT060,0.00,VWS V13.01,2013-03-05 14:11:00,
2013-03-05 15:16:00,58.6,26.5,29.96,SE,133,0.0,0.0,29,0.00,,SCT060,0.00,VWS V13.01,2013-03-05 14:16:00,
2013-03-05 15:21:00,58.6,27.3,29.96,ESE,120,0.0,0.0,30,0.00,,SCT060,0.00,VWS V13.01,2013-03-05 14:21:00,
2013-03-05 15:26:00,58.6,26.5,29.96,East,91,0.0,0.0,29,0.00,,SCT060,0.00,VWS V13.01,2013-03-05 14:26:00,
2013-03-05 15:31:00,58.6,26.5,29.96,ENE,73,0.0,0.0,29,0.00,,SCT060,0.00,VWS V13.01,2013-03-05 14:31:00,
2013-03-05 15:36:00,58.8,26.6,29.96,ESE,110,2.7,3.1,29,0.00,,SCT060,0.00,VWS V13.01,2013-03-05 14:36:00,
2013-03-05 15:41:00,59.2,27.0,29.96,East,87,0.0,0.0,29,0.00,,SCT060,0.00,VWS V13.01,2013-03-05 14:41:00,
2013-03-05 15:46:00,59.2,27.0,29.93,ENE,76,0.0,2.7,29,0.00,,SCT060,0.00,VWS V13.01,2013-03-05 14:46:00,
2013-03-05 15:51:00,59.2,27.0,29.93,East,93,0.0,0.0,29,0.00,,SCT060,0.00,VWS V13.01,2013-03-05 14:51:00,
2013-03-05 15:56:00,59.4,27.1,29.93,East,98,0.0,0.0,29,0.00,,SCT060,0.00,VWS V13.01,2013-03-05 14:56:00,
2013-03-05 16:01:00,59.4,27.1,29.93,East,96,0.0,0.0,29,0.00,,-RA,0.00,VWS V13.01,2013-03-05 15:01:00,
2013-03-05 16:06:00,59.4,27.1,29.93,East,93,0.0,0.0,29,0.00,,-RA,0.00,VWS V13.01,2013-03-05 15:06:00,
2013-03-05 16:11:00,59.4,26.3,29.93,ESE,118,0.0,0.0,28,0.00,,-RA,0.00,VWS V13.01,2013-03-05 15:11:00,
2013-03-05 16:16:00,59.4,26.3,29.93,SE,139,0.0,0.0,28,0.00,,-RA,0.00,VWS V13.01,2013-03-05 15:16:00,
2013-03-05 16:21:00,59.4,26.3,29.93,SW,230,0.0,0.0,28,0.00,,-RA,0.00,VWS V13.01,2013-03-05 15:21:00,
2013-03-05 16:26:00,59.2,26.1,29.93,WSW,256,0.0,0.0,28,0.00,,-RA,0.00,VWS V13.01,2013-03-05 15:26:00,
2013-03-05 16:31:00,58.8,26.6,29.93,SSW,202,5.4,5.4,29,0.00,,-RA,0.00,VWS V13.01,2013-03-05 15:31:00,
2013-03-05 16:36:00,58.5,26.3,29.93,WSW,249,2.7,3.6,29,0.00,,-RA,0.00,VWS V13.01,2013-03-05 15:36:00,
2013-03-05 16:41:00,58.1,26.0,29.93,SE,145,0.0,0.0,29,0.00,,-RA,0.00,VWS V13.01,2013-03-05 15:41:00,
2013-03-05 16:46:00,58.1,25.2,29.93,SW,236,0.0,0.0,28,0.00,,-RA,0.00,VWS V13.01,2013-03-05 15:46:00,
2013-03-05 16:51:00,57.9,25.0,29.93,WNW,282,0.0,0.0,28,0.00,,-RA,0.00,VWS V13.01,2013-03-05 15:51:00,
2013-03-05 16:56:00,57.9,25.0,29.93,WNW,293,0.0,0.0,28,0.00,,-RA,0.00,VWS V13.01,2013-03-05 15:56:00,
2013-03-05 17:01:00,57.9,25.0,29.90,WSW,241,0.0,0.0,28,0.00,,BKN080,0.00,VWS V13.01,2013-03-05 16:01:00,
2013-03-05 17:06:00,57.9,24.2,29.90,SW,214,2.2,2.7,27,0.00,,BKN080,0.00,VWS V13.01,2013-03-05 16:06:00,
2013-03-05 17:11:00,57.9,24.2,29.90,WNW,295,3.6,6.3,27,0.00,,BKN080,0.00,VWS V13.01,2013-03-05 16:11:00,
2013-03-05 17:16:00,57.7,24.0,29.90,SSW,203,0.0,5.8,27,0.00,,BKN080,0.00,VWS V13.01,2013-03-05 16:16:00,
2013-03-05 17:21:00,57.9,24.2,29.90,SW,216,3.1,3.1,27,0.00,,BKN080,0.00,VWS V13.01,2013-03-05 16:21:00,
2013-03-05 17:26:00,57.7,24.0,29.90,SSW,204,3.1,3.1,27,0.00,,BKN080,0.00,VWS V13.01,2013-03-05 16:26:00,
2013-03-05 17:31:00,57.7,24.0,29.90,WSW,242,0.0,3.1,27,0.00,,BKN080,0.00,VWS V13.01,2013-03-05 16:31:00,
2013-03-05 17:36:00,57.6,23.9,29.90,WSW,240,2.7,3.1,27,0.00,,BKN080,0.00,VWS V13.01,2013-03-05 16:36:00,
2013-03-05 17:41:00,57.4,23.7,29.90,SW,235,6.3,6.3,27,0.00,,BKN080,0.00,VWS V13.01,2013-03-05 16:41:00,
2013-03-05 17:46:00,57.2,23.5,29.90,SSW,203,4.9,6.3,27,0.00,,BKN080,0.00,VWS V13.01,2013-03-05 16:46:00,
2013-03-05 17:51:00,57.0,23.4,29.90,West,261,5.8,6.3,27,0.00,,BKN080,0.00,VWS V13.01,2013-03-05 16:51:00,
2013-03-05 17:56:00,56.8,23.2,29.90,SSW,193,3.1,3.1,27,0.00,,BKN080,0.00,VWS V13.01,2013-03-05 16:56:00,
2013-03-05 18:01:00,56.8,23.2,29.90,West,281,4.0,4.0,27,0.00,,BKN080,0.00,VWS V13.01,2013-03-05 17:01:00,
2013-03-05 18:06:00,56.7,23.1,29.90,SSW,204,2.2,3.6,27,0.00,,BKN080,0.00,VWS V13.01,2013-03-05 17:06:00,
2013-03-05 18:11:00,56.8,23.2,29.90,West,259,4.0,4.9,27,0.00,,BKN080,0.00,VWS V13.01,2013-03-05 17:11:00,
2013-03-05 18:16:00,56.8,22.3,29.90,SW,234,3.6,5.4,26,0.00,,BKN080,0.00,VWS V13.01,2013-03-05 17:16:00,
2013-03-05 18:21:00,56.8,22.3,29.90,SSE,165,3.6,6.3,26,0.00,,BKN080,0.00,VWS V13.01,2013-03-05 17:21:00,
2013-03-05 18:26:00,56.8,22.3,29.90,SSE,166,3.1,3.1,26,0.00,,BKN080,0.00,VWS V13.01,2013-03-05 17:26:00,
2013-03-05 18:50:00,56.1,22.6,29.93,SW,223,0.0,0.0,27,0.00,,BKN080,0.00,VWS V13.01,2013-03-05 17:50:00,
2013-03-05 18:55:00,55.6,23.0,29.93,WNW,295,0.0,0.0,28,0.00,,RA,0.00,VWS V13.01,2013-03-05 17:55:00,
2013-03-05 18:56:00,55.6,23.0,29.93,WNW,295,0.0,0.0,28,0.00,,BKN080,0.00,VWS V13.01,2013-03-05 17:56:00,
2013-03-05 18:57:00,55.6,23.0,29.93,ENE,68,0.0,0.0,28,0.00,,RA,0.00,VWS V13.01,2013-03-05 17:57:00,
2013-03-05 18:58:00,55.4,22.9,29.93,SSW,205,0.0,2.7,28,0.00,,RA,0.00,VWS V13.01,2013-03-05 17:58:00,
2013-03-05 18:59:00,55.4,22.9,29.93,NNE,22,2.7,2.7,28,0.00,,RA,0.00,VWS V13.01,2013-03-05 17:59:00,
2013-03-05 19:00:00,55.4,22.9,29.93,WSW,239,0.0,2.7,28,0.00,,RA,0.00,VWS V13.01,2013-03-05 18:00:00,
2013-03-05 19:01:00,55.2,22.7,29.93,SW,232,2.7,2.7,28,0.00,,FEW030,0.00,VWS V13.01,2013-03-05 18:01:00,
2013-03-05 19:02:00,55.2,22.7,29.93,WNW,285,0.0,3.6,28,0.00,,RA,0.00,VWS V13.01,2013-03-05 18:02:00,
2013-03-05 19:03:00,55.0,22.5,29.93,SW,227,2.7,3.1,28,0.00,,RA,0.00,VWS V13.01,2013-03-05 18:03:00,
2013-03-05 19:04:00,55.0,22.5,29.93,SE,138,5.4,5.4,28,0.00,,RA,0.00,VWS V13.01,2013-03-05 18:04:00,
2013-03-05 19:05:00,55.0,23.4,29.93,SSW,197,2.7,3.1,29,0.00,,FEW030,0.00,VWS V13.01,2013-03-05 18:05:00,
2013-03-05 19:06:00,55.0,23.4,29.93,SW,216,4.0,4.0,29,0.00,,RA,0.00,VWS V13.01,2013-03-05 18:06:00,
2013-03-05 19:07:00,54.9,23.2,29.93,West,262,2.2,4.0,29,0.00,,RA,0.00,VWS V13.01,2013-03-05 18:07:00,
2013-03-05 19:08:00,54.9,23.2,29.93,WSW,239,2.2,3.6,29,0.00,,RA,0.00,VWS V13.01,2013-03-05 18:08:00,
2013-03-05 19:09:00,54.9,23.2,29.93,South,175,3.6,5.8,29,0.00,,RA,0.00,VWS V13.01,2013-03-05 18:09:00,
2013-03-05 19:10:00,54.5,22.9,29.93,SSE,154,3.1,3.1,29,0.00,,FEW030,0.00,VWS V13.01,2013-03-05 18:10:00,
2013-03-05 19:11:00,54.5,23.7,29.93,South,189,2.7,3.1,30,0.00,,RA,0.00,VWS V13.01,2013-03-05 18:11:00,
2013-03-05 19:12:00,54.5,23.7,29.93,South,190,2.7,3.6,30,0.00,,RA,0.00,VWS V13.01,2013-03-05 18:12:00,
2013-03-05 19:13:00,54.5,22.9,29.93,South,182,3.1,4.0,29,0.00,,RA,0.00,VWS V13.01,2013-03-05 18:13:00,
2013-03-05 19:14:00,54.5,22.9,29.93,SSW,198,2.7,7.2,29,0.00,,RA,0.00,VWS V13.01,2013-03-05 18:14:00,
2013-03-05 19:15:00,54.5,22.9,29.93,SSW,200,3.6,3.6,29,0.00,,FEW030,0.00,VWS V13.01,2013-03-05 18:15:00,
2013-03-05 19:16:00,54.5,22.9,29.93,WNW,297,5.8,5.8,29,0.00,,RA,0.00,VWS V13.01,2013-03-05 18:16:00,
2013-03-05 19:17:00,54.5,22.9,29.93,SW,235,3.6,5.8,29,0.00,,RA,0.00,VWS V13.01,2013-03-05 18:17:00,
2013-03-05 19:18:00,54.5,22.9,29.93,South,176,2.7,3.6,29,0.00,,RA,0.00,VWS V13.01,2013-03-05 18:18:00,
2013-03-05 19:19:00,54.5,23.7,29.93,SSW,209,3.1,3.1,30,0.00,,RA,0.00,VWS V13.01,2013-03-05 18:19:00,
2013-03-05 19:20:00,54.3,23.6,29.93,SW,227,3.1,3.1,30,0.00,,FEW030,0.00,VWS V13.01,2013-03-05 18:20:00,
2013-03-05 19:21:00,54.3,23.6,29.93,West,275,2.7,3.1,30,0.00,,RA,0.00,VWS V13.01,2013-03-05 18:21:00,
2013-03-05 19:22:00,54.3,23.6,29.93,South,188,2.7,2.7,30,0.00,,RA,0.00,VWS V13.01,2013-03-05 18:22:00,
2013-03-05 19:23:00,54.1,23.4,29.93,WSW,239,4.0,4.0,30,0.00,,RA,0.00,VWS V13.01,2013-03-05 18:23:00,
2013-03-05 19:24:00,54.1,23.4,29.93,SW,217,4.0,4.0,30,0.00,,RA,0.00,VWS V13.01,2013-03-05 18:24:00,
2013-03-05 19:25:00,54.1,23.4,29.93,SSW,203,5.4,5.4,30,0.00,,FEW030,0.00,VWS V13.01,2013-03-05 18:25:00,
2013-03-05 19:26:00,54.1,23.4,29.93,SW,229,2.7,5.4,30,0.00,,RA,0.00,VWS V13.01,2013-03-05 18:26:00,
2013-03-05 19:27:00,54.1,23.4,29.93,South,185,4.0,4.0,30,0.00,,RA,0.00,VWS V13.01,2013-03-05 18:27:00,
2013-03-05 19:28:00,54.0,23.2,29.93,WNW,301,0.0,4.0,30,0.00,,RA,0.00,VWS V13.01,2013-03-05 18:28:00,
2013-03-05 19:29:00,54.0,23.2,29.93,SSW,206,2.2,2.7,30,0.00,,RA,0.00,VWS V13.01,2013-03-05 18:29:00,
2013-03-05 19:30:00,54.0,24.0,29.93,South,190,0.0,3.6,31,0.00,,RA,0.00,VWS V13.01,2013-03-05 18:30:00,
2013-03-05 19:31:00,54.0,24.0,29.93,WSW,240,0.0,4.9,31,0.00,,FEW030,0.00,VWS V13.01,2013-03-05 18:31:00,
2013-03-05 19:32:00,53.8,23.9,29.93,WSW,247,0.0,4.5,31,0.00,,RA,0.00,VWS V13.01,2013-03-05 18:32:00,
2013-03-05 19:33:00,53.8,23.9,29.93,South,191,2.7,2.7,31,0.00,,RA,0.00,VWS V13.01,2013-03-05 18:33:00,
2013-03-05 19:34:00,53.6,24.5,29.93,SW,221,0.0,2.7,32,0.00,,RA,0.00,VWS V13.01,2013-03-05 18:34:00,
2013-03-05 19:35:00,53.6,24.5,29.93,SW,229,2.2,3.6,32,0.00,,RA,0.00,VWS V13.01,2013-03-05 18:35:00,
2013-03-05 19:36:00,53.4,24.3,29.93,SW,223,6.3,6.3,32,0.00,,FEW030,0.00,VWS V13.01,2013-03-05 18:36:00,
2013-03-05 19:37:00,53.4,25.1,29.93,SW,218,3.6,3.6,33,0.00,,RA,0.00,VWS V13.01,2013-03-05 18:37:00,
2013-03-05 19:38:00,53.4,25.1,29.93,SW,234,5.8,5.8,33,0.00,,RA,0.00,VWS V13.01,2013-03-05 18:38:00,
2013-03-05 19:39:00,53.2,24.9,29.93,WSW,239,7.6,8.3,33,0.00,,RA,0.00,VWS V13.01,2013-03-05 18:39:00,
2013-03-05 19:40:00,53.2,26.3,29.93,SSW,197,4.0,7.6,35,0.00,,RA,0.00,VWS V13.01,2013-03-05 18:40:00,
2013-03-05 19:41:00,53.2,26.3,29.93,WSW,240,2.2,4.0,35,0.00,,FEW030,0.00,VWS V13.01,2013-03-05 18:41:00,
2013-03-05 19:42:00,52.9,26.7,29.93,WSW,248,4.0,5.4,36,0.00,,RA,0.00,VWS V13.01,2013-03-05 18:42:00,
2013-03-05 19:43:00,52.9,26.7,29.93,SSW,206,5.8,5.8,36,0.00,,RA,0.00,VWS V13.01,2013-03-05 18:43:00,
2013-03-05 19:44:00,52.9,26.7,29.93,SSW,213,3.1,5.8,36,0.00,,RA,0.00,VWS V13.01,2013-03-05 18:44:00,
2013-03-05 19:45:00,52.9,26.7,29.93,WSW,250,3.6,4.0,36,0.00,,RA,0.00,VWS V13.01,2013-03-05 18:45:00,
2013-03-05 19:46:00,52.9,26.7,29.93,WSW,238,3.1,3.6,36,0.00,,FEW030,0.00,VWS V13.01,2013-03-05 18:46:00,
2013-03-05 19:47:00,52.7,26.5,29.93,SW,225,4.0,4.0,36,0.00,,RA,0.00,VWS V13.01,2013-03-05 18:47:00,
2013-03-05 19:48:00,52.7,26.5,29.93,SW,228,0.0,4.0,36,0.00,,RA,0.00,VWS V13.01,2013-03-05 18:48:00,
2013-03-05 19:49:00,52.7,26.5,29.93,WSW,241,0.0,3.1,36,0.00,,RA,0.00,VWS V13.01,2013-03-05 18:49:00,
2013-03-05 19:50:00,52.5,26.4,29.93,SW,215,0.0,3.6,36,0.00,,RA,0.00,VWS V13.01,2013-03-05 18:50:00,
2013-03-05 19:51:00,52.5,26.4,29.93,SSW,209,0.0,4.0,36,0.00,,FEW030,0.00,VWS V13.01,2013-03-05 18:51:00,
2013-03-05 19:52:00,52.7,26.5,29.93,SSE,159,3.1,4.0,36,0.00,,RA,0.00,VWS V13.01,2013-03-05 18:52:00,
2013-03-05 19:53:00,52.9,26.7,29.93,SE,131,0.0,3.1,36,0.00,,RA,0.00,VWS V13.01,2013-03-05 18:53:00,
2013-03-05 19:54:00,53.1,26.8,29.93,SE,146,0.0,0.0,36,0.00,,RA,0.00,VWS V13.01,2013-03-05 18:54:00,
2013-03-05 19:55:00,53.1,26.8,29.93,SE,127,0.0,0.0,36,0.00,,RA,0.00,VWS V13.01,2013-03-05 18:55:00,
2013-03-05 19:56:00,53.1,24.7,29.93,ESE,120,3.6,3.6,33,0.00,,RA,0.00,VWS V13.01,2013-03-05 18:56:00,
2013-03-05 19:57:00,53.2,25.6,29.93,ESE,120,0.0,3.6,34,0.00,,RA,0.00,VWS V13.01,2013-03-05 18:57:00,
2013-03-05 19:58:00,53.2,26.3,29.93,ESE,120,0.0,0.0,35,0.00,,RA,0.00,VWS V13.01,2013-03-05 18:58:00,
2013-03-05 19:59:00,53.2,27.0,29.93,ESE,120,0.0,0.0,36,0.00,,FEW030,0.00,VWS V13.01,2013-03-05 18:59:00,
2013-03-05 20:00:00,53.4,27.1,29.93,ESE,119,0.0,0.0,36,0.00,,RA,0.00,VWS V13.01,2013-03-05 19:00:00,
2013-03-05 20:01:00,53.2,27.0,29.93,ESE,119,0.0,0.0,36,0.00,,RA,0.00,VWS V13.01,2013-03-05 19:01:00,
2013-03-05 20:02:00,53.2,27.0,29.93,ESE,119,0.0,0.0,36,0.00,,RA,0.00,VWS V13.01,2013-03-05 19:02:00,
2013-03-05 20:03:00,53.2,26.3,29.93,South,170,2.2,2.2,35,0.00,,RA,0.00,VWS V13.01,2013-03-05 19:03:00,
2013-03-05 20:04:00,53.2,26.3,29.93,South,182,0.0,0.0,35,0.00,,-RA,0.00,VWS V13.01,2013-03-05 19:04:00,
2013-03-05 20:05:00,53.2,27.0,29.93,South,182,0.0,0.0,36,0.00,,RA,0.00,VWS V13.01,2013-03-05 19:05:00,
2013-03-05 20:06:00,53.2,27.0,29.93,South,182,0.0,0.0,36,0.00,,RA,0.00,VWS V13.01,2013-03-05 19:06:00,
2013-03-05 20:07:00,53.2,27.0,29.93,South,182,0.0,0.0,36,0.00,,RA,0.00,VWS V13.01,2013-03-05 19:07:00,
2013-03-05 20:08:00,53.2,27.0,29.93,South,169,0.0,0.0,36,0.00,,RA,0.00,VWS V13.01,2013-03-05 19:08:00,
2013-03-05 20:09:00,53.1,26.8,29.93,SSE,159,0.0,0.0,36,0.00,,-RA,0.00,VWS V13.01,2013-03-05 19:09:00,
2013-03-05 20:10:00,53.1,26.8,29.93,SSE,159,0.0,0.0,36,0.00,,RA,0.00,VWS V13.01,2013-03-05 19:10:00,
2013-03-05 20:11:00,53.1,26.8,29.93,SSE,160,0.0,0.0,36,0.00,,RA,0.00,VWS V13.01,2013-03-05 19:11:00,
2013-03-05 20:12:00,53.1,26.8,29.93,SSE,160,0.0,0.0,36,0.00,,RA,0.00,VWS V13.01,2013-03-05 19:12:00,
2013-03-05 20:13:00,53.1,26.8,29.93,SSE,160,0.0,0.0,36,0.00,,RA,0.00,VWS V13.01,2013-03-05 19:13:00,
2013-03-05 20:14:00,53.1,26.8,29.93,SSE,155,0.0,0.0,36,0.00,,-RA,0.00,VWS V13.01,2013-03-05 19:14:00,
2013-03-05 20:15:00,53.1,26.8,29.93,SSE,155,0.0,0.0,36,0.00,,RA,0.00,VWS V13.01,2013-03-05 19:15:00,
2013-03-05 20:16:00,53.1,26.8,29.93,SSE,155,0.0,0.0,36,0.00,,RA,0.00,VWS V13.01,2013-03-05 19:16:00,
2013-03-05 20:17:00,53.1,27.5,29.93,SSE,155,0.0,0.0,37,0.00,,RA,0.00,VWS V13.01,2013-03-05 19:17:00,
2013-03-05 20:18:00,52.9,27.3,29.93,SSE,155,0.0,0.0,37,0.00,,RA,0.00,VWS V13.01,2013-03-05 19:18:00,
2013-03-05 20:19:00,52.9,27.3,29.93,SSE,155,0.0,0.0,37,0.00,,-RA,0.00,VWS V13.01,2013-03-05 19:19:00,
2013-03-05 20:20:00,52.7,27.2,29.93,SSE,155,0.0,0.0,37,0.00,,RA,0.00,VWS V13.01,2013-03-05 19:20:00,
2013-03-05 20:21:00,52.7,27.2,29.93,SSE,155,0.0,0.0,37,0.00,,RA,0.00,VWS V13.01,2013-03-05 19:21:00,
2013-03-05 20:22:00,52.5,27.0,29.93,SSE,155,0.0,0.0,37,0.00,,RA,0.00,VWS V13.01,2013-03-05 19:22:00,
2013-03-05 20:23:00,52.5,27.0,29.93,SSE,155,0.0,0.0,37,0.00,,RA,0.00,VWS V13.01,2013-03-05 19:23:00,
2013-03-05 20:24:00,52.3,27.5,29.93,SSE,155,0.0,0.0,38,0.00,,-RA,0.00,VWS V13.01,2013-03-05 19:24:00,
2013-03-05 20:25:00,52.3,27.5,29.93,SSE,155,0.0,0.0,38,0.00,,RA,0.00,VWS V13.01,2013-03-05 19:25:00,
2013-03-05 20:26:00,52.2,27.3,29.93,SSE,155,0.0,0.0,38,0.00,,RA,0.00,VWS V13.01,2013-03-05 19:26:00,
2013-03-05 20:27:00,52.2,27.3,29.93,SSE,155,0.0,0.0,38,0.00,,RA,0.00,VWS V13.01,2013-03-05 19:27:00,
2013-03-05 20:28:00,52.0,27.2,29.93,SSE,155,0.0,0.0,38,0.00,,RA,0.00,VWS V13.01,2013-03-05 19:28:00,
2013-03-05 20:29:00,52.0,27.2,29.93,SSE,155,0.0,0.0,38,0.00,,-RA,0.00,VWS V13.01,2013-03-05 19:29:00,
2013-03-05 20:30:00,52.0,27.8,29.93,SSE,152,0.0,0.0,39,0.00,,RA,0.00,VWS V13.01,2013-03-05 19:30:00,
2013-03-05 20:31:00,52.0,27.8,29.93,SSE,152,0.0,0.0,39,0.00,,RA,0.00,VWS V13.01,2013-03-05 19:31:00,
2013-03-05 20:32:00,52.0,27.8,29.93,SSE,152,0.0,0.0,39,0.00,,RA,0.00,VWS V13.01,2013-03-05 19:32:00,
2013-03-05 20:33:00,51.8,28.3,29.93,SSE,152,0.0,0.0,40,0.00,,RA,0.00,VWS V13.01,2013-03-05 19:33:00,
2013-03-05 20:34:00,51.8,28.3,29.93,ESE,123,0.0,0.0,40,0.00,,-RA,0.00,VWS V13.01,2013-03-05 19:34:00,
2013-03-05 20:39:00,51.8,28.3,29.93,ESE,123,0.0,0.0,40,0.00,,-RA,0.00,VWS V13.01,2013-03-05 19:39:00,
2013-03-05 20:44:00,51.8,28.3,29.93,ESE,123,0.0,0.0,40,0.00,,-RA,0.00,VWS V13.01,2013-03-05 19:44:00,
2013-03-05 21:31:00,51.8,28.3,29.93,ESE,123,0.0,0.0,40,0.00,,-RA,0.00,VWS V13.01,2013-03-05 20:31:00,
2013-03-05 21:36:00,51.8,28.3,29.93,ESE,123,0.0,0.0,40,0.00,,-RA,0.00,VWS V13.01,2013-03-05 20:36:00,
2013-03-05 21:41:00,51.8,28.3,29.93,ESE,123,0.0,0.0,40,0.00,,-RA,0.00,VWS V13.01,2013-03-05 20:41:00,